TimeCST,TemperatureF,Dew PointF,Humidity,Sea Level PressureIn,VisibilityMPH,Wind Direction,Wind SpeedMPH,Gust SpeedMPH,PrecipitationIn,Events,Conditions,WindDirDegrees,DateUTC
12:53 AM,32.0,14.0,48,30.24,10.0,SW,3.5,-,N/A,,Clear,220,2012-12-12 06:53:00
1:53 AM,32.0,12.0,44,30.24,10.0,Calm,Calm,-,N/A,,Clear,0,2012-12-12 07:53:00
2:53 AM,28.0,12.9,53,30.25,10.0,SSE,3.5,-,N/A,,Clear,150,2012-12-12 08:53:00
3:53 AM,27.0,12.9,56,30.25,10.0,Calm,Calm,-,N/A,,Clear,0,2012-12-12 09:53:00
4:53 AM,27.0,12.9,56,30.25,10.0,Calm,Calm,-,N/A,,Clear,0,2012-12-12 10:53:00
5:53 AM,26.1,14.0,60,30.28,10.0,SSE,3.5,-,N/A,,Clear,150,2012-12-12 11:53:00
6:53 AM,25.0,15.1,66,30.30,10.0,Calm,Calm,-,N/A,,Clear,0,2012-12-12 12:53:00
7:53 AM,26.1,19.0,75,30.32,8.0,Calm,Calm,-,N/A,,Clear,0,2012-12-12 13:53:00
8:53 AM,30.9,21.9,69,30.34,8.0,Calm,Calm,-,N/A,,Clear,0,2012-12-12 14:53:00
9:53 AM,37.9,19.0,47,30.35,10.0,SSE,3.5,-,N/A,,Clear,160,2012-12-12 15:53:00
10:53 AM,43.0,21.0,42,30.34,10.0,Variable,4.6,-,N/A,,Clear,0,2012-12-12 16:53:00
11:53 AM,48.0,16.0,28,30.31,10.0,SE,10.4,-,N/A,,Clear,140,2012-12-12 17:53:00
12:53 PM,48.9,12.9,24,30.28,10.0,Variable,4.6,-,N/A,,Clear,0,2012-12-12 18:53:00
1:53 PM,51.1,15.1,24,30.26,10.0,Variable,3.5,-,N/A,,Clear,0,2012-12-12 19:53:00
2:53 PM,52.0,14.0,22,30.25,10.0,ESE,8.1,-,N/A,,Clear,120,2012-12-12 20:53:00
3:53 PM,51.1,12.0,21,30.26,10.0,SE,5.8,-,N/A,,Clear,140,2012-12-12 21:53:00
4:53 PM,46.0,12.0,25,30.27,10.0,SSE,4.6,-,N/A,,Clear,160,2012-12-12 22:53:00
5:53 PM,43.0,14.0,31,30.28,10.0,SSE,4.6,-,N/A,,Clear,150,2012-12-12 23:53:00
6:53 PM,39.9,15.1,36,30.28,10.0,SSE,3.5,-,N/A,,Clear,160,2012-12-13 00:53:00
7:53 PM,39.0,15.1,38,30.29,10.0,SE,3.5,-,N/A,,Clear,140,2012-12-13 01:53:00
8:53 PM,37.0,15.1,41,30.30,10.0,SE,4.6,-,N/A,,Clear,130,2012-12-13 02:53:00
9:53 PM,35.1,17.1,48,30.30,10.0,SE,4.6,-,N/A,,Clear,140,2012-12-13 03:53:00
10:53 PM,34.0,19.0,54,30.30,10.0,SSE,6.9,-,N/A,,Clear,150,2012-12-13 04:53:00
11:53 PM,35.1,19.0,52,30.30,10.0,SSE,6.9,-,N/A,,Clear,150,2012-12-13 05:53:00